TimeEST,TemperatureF,Dew PointF,Humidity,Sea Level PressureIn,VisibilityMPH,Wind Direction,Wind SpeedMPH,Gust SpeedMPH,PrecipitationIn,Events,Conditions,WindDirDegrees,DateUTC
12:53 AM,54.0,46.0,75,30.11,10.0,WNW,9.2,-,N/A,,Clear,290,2013-01-18 05:53:00
1:53 AM,50.0,45.0,83,30.12,10.0,NW,5.8,-,N/A,,Clear,310,2013-01-18 06:53:00
2:53 AM,52.0,44.1,74,30.13,10.0,NW,11.5,18.4,N/A,,Clear,310,2013-01-18 07:53:00
3:53 AM,50.0,43.0,77,30.14,10.0,NW,11.5,-,N/A,,Partly Cloudy,320,2013-01-18 08:53:00
4:53 AM,48.0,41.0,77,30.16,10.0,NW,12.7,-,N/A,,Scattered Clouds,320,2013-01-18 09:53:00
5:33 AM,46.4,39.2,76,30.18,10.0,NW,12.7,19.6,N/A,,Mostly Cloudy,310,2013-01-18 10:33:00
5:53 AM,46.9,39.0,74,30.18,10.0,NW,13.8,-,N/A,,Overcast,310,2013-01-18 10:53:00
6:53 AM,46.0,37.9,73,30.21,10.0,NW,11.5,-,N/A,,Overcast,320,2013-01-18 11:53:00
7:25 AM,44.6,37.4,76,30.23,10.0,NW,10.4,-,N/A,,Scattered Clouds,310,2013-01-18 12:25:00
7:53 AM,45.0,37.0,74,30.24,10.0,WNW,9.2,-,N/A,,Partly Cloudy,290,2013-01-18 12:53:00
8:53 AM,48.0,39.0,71,30.25,10.0,WNW,10.4,-,N/A,,Clear,300,2013-01-18 13:53:00
9:53 AM,54.0,42.1,64,30.25,10.0,NW,9.2,-,N/A,,Clear,310,2013-01-18 14:53:00
10:53 AM,60.1,46.0,60,30.24,10.0,NW,10.4,-,N/A,,Partly Cloudy,310,2013-01-18 15:53:00
11:53 AM,66.9,52.0,59,30.22,10.0,North,11.5,-,N/A,,Scattered Clouds,360,2013-01-18 16:53:00
12:53 PM,68.0,54.0,61,30.20,10.0,Variable,5.8,-,N/A,,Mostly Cloudy,0,2013-01-18 17:53:00
1:53 PM,70.0,53.1,55,30.18,10.0,ENE,16.1,24.2,N/A,,Overcast,60,2013-01-18 18:53:00
2:53 PM,70.0,57.0,63,30.19,10.0,NNE,19.6,28.8,N/A,,Mostly Cloudy,30,2013-01-18 19:53:00
3:53 PM,68.0,55.0,63,30.19,10.0,NE,16.1,23.0,0.00,,Mostly Cloudy,50,2013-01-18 20:53:00
4:53 PM,69.1,55.0,61,30.20,10.0,ENE,15.0,23.0,N/A,,Mostly Cloudy,70,2013-01-18 21:53:00
5:53 PM,68.0,53.1,59,30.22,10.0,ENE,13.8,20.7,N/A,,Mostly Cloudy,60,2013-01-18 22:53:00
6:53 PM,66.0,57.9,75,30.23,10.0,ENE,10.4,19.6,0.00,,Mostly Cloudy,60,2013-01-18 23:53:00
7:53 PM,66.9,55.9,68,30.24,10.0,ENE,13.8,24.2,N/A,,Partly Cloudy,70,2013-01-19 00:53:00
8:53 PM,64.9,59.0,81,30.24,10.0,ENE,16.1,20.7,0.00,,Overcast,60,2013-01-19 01:53:00
9:53 PM,64.0,59.0,84,30.24,10.0,NE,15.0,25.3,0.03,,Overcast,50,2013-01-19 02:53:00
10:53 PM,64.0,61.0,90,30.23,8.0,East,9.2,-,0.03,Rain,Light Rain,90,2013-01-19 03:53:00
11:53 PM,64.9,60.1,84,30.22,10.0,ENE,15.0,20.7,0.04,,Overcast,60,2013-01-19 04:53:00